EW4670 Weather Reports


Display with metric or nautical units.
time (UTC)temp
F
wind
direction
speed
MPH
gust
MPH
rain 1hr
in
rain 24hr
in
rain mn
in
humidity
%
barometer
mb
20260506023537 59 215 4.0 7.0 0.00 0.00 0.00 68 1010.6
20260506022535 59 216 3.0 7.0 0.00 0.00 0.00 67 1010.7
20260506021535 60 247 1.0 4.0 0.00 0.00 0.00 66 1010.7
20260506020614 60 216 1.0 4.0 0.00 0.00 0.00 65 1010.7
20260506015539 60 215 2.0 4.0 0.00 0.00 0.00 65 1010.8
20260506014534 61 210 1.0 3.0 0.00 0.00 0.00 64 1010.8
20260506013535 61 218 3.0 7.0 0.00 0.00 0.00 64 1010.8
20260506012533 61 220 2.0 5.0 0.00 0.00 0.00 63 1010.8
20260506011552 61 214 3.0 7.0 0.00 0.00 0.00 63 1010.9
20260506010531 61 214 4.0 7.0 0.00 0.00 0.00 63 1010.9
20260506005533 61 201 4.0 8.0 0.00 0.00 0.00 62 1010.9
20260506004531 62 217 3.0 7.0 0.00 0.00 0.00 62 1010.9
20260506003531 62 206 2.0 5.0 0.00 0.00 0.00 61 1010.9
20260506002530 62 212 2.0 7.0 0.00 0.00 0.00 61 1010.9
20260506001550 62 204 2.0 7.0 0.00 0.00 0.00 61 1010.9
20260506000529 62 231 2.0 7.0 0.00 0.00 0.00 61 1011.0
20260505235529 62 218 3.0 8.0 0.00 0.00 0.00 60 1011.1
20260505234528 62 236 3.0 7.0 0.00 0.00 0.00 60 1011.1
20260505233530 62 225 2.0 7.0 0.00 0.00 0.00 59 1011.1
20260505232528 62 233 2.0 5.0 0.00 0.00 0.00 58 1011.2
20260505231528 62 222 2.0 5.0 0.00 0.00 0.00 57 1011.1
20260505230527 63 227 2.0 5.0 0.00 0.00 0.00 57 1011.2
20260505225527 63 213 3.0 8.0 0.00 0.00 0.00 56 1011.1
20260505224526 63 225 2.0 8.0 0.00 0.00 0.00 56 1011.2
20260505223526 63 225 4.0 11.0 0.00 0.00 0.00 56 1011.1
20260505222525 64 222 4.0 7.0 0.00 0.00 0.00 55 1011.1
20260505221526 64 224 5.0 10.0 0.00 0.00 0.00 55 1011.1
20260505220544 64 211 5.0 11.0 0.00 0.00 0.00 55 1011.1
20260505215554 64 213 3.0 7.0 0.00 0.00 0.00 54 1011.2
20260505214523 65 231 4.0 12.0 0.00 0.00 0.00 54 1011.2
20260505213543 65 218 5.0 11.0 0.00 0.00 0.00 53 1011.1
20260505212542 65 223 6.0 10.0 0.00 0.00 0.00 53 1011.2
20260505211522 65 206 6.0 15.0 0.00 0.00 0.00 53 1011.2
20260505210521 65 251 5.0 14.0 0.00 0.00 0.00 53 1011.3
20260505205521 65 226 3.0 5.0 0.00 0.00 0.00 53 1011.3
20260505204520 66 213 3.0 7.0 0.00 0.00 0.00 52 1011.3
20260505203541 66 218 4.0 8.0 0.00 0.00 0.00 52 1011.3
20260505202519 66 227 3.0 12.0 0.00 0.00 0.00 51 1011.2
20260505201519 66 231 3.0 7.0 0.00 0.00 0.00 51 1011.2
20260505200608 67 230 4.0 10.0 0.00 0.00 0.00 50 1011.1
20260505195547 67 233 5.0 12.0 0.00 0.00 0.00 49 1011.0
20260505194605 67 234 5.0 11.0 0.00 0.00 0.00 48 1011.0
20260505193546 68 246 4.0 12.0 0.00 0.00 0.00 47 1011.0
20260505192605 68 242 5.0 15.0 0.00 0.00 0.00 46 1011.0
20260505191545 69 246 4.0 12.0 0.00 0.00 0.00 45 1011.0
20260505190544 69 257 7.0 15.0 0.00 0.00 0.00 44 1010.8
20260505185604 70 253 5.0 19.0 0.00 0.00 0.00 42 1010.8
20260505184543 71 230 4.0 10.0 0.00 0.00 0.00 41 1010.5
20260505183543 72 229 4.0 10.0 0.00 0.00 0.00 40 1010.4
20260505182542 72 233 4.0 10.0 0.00 0.00 0.00 39 1010.3
20260505181542 72 237 3.0 8.0 0.00 0.00 0.00 39 1010.2
20260505180541 73 228 4.0 8.0 0.00 0.00 0.00 38 1010.3
20260505175541 73 261 3.0 8.0 0.00 0.00 0.00 38 1010.2
20260505174541 73 269 3.0 8.0 0.00 0.00 0.00 37 1010.2
20260505173601 74 221 5.0 10.0 0.00 0.00 0.00 36 1010.2
20260505172539 75 255 5.0 11.0 0.00 0.00 0.00 35 1010.2
20260505171539 75 241 7.0 14.0 0.00 0.00 0.00 34 1010.1
20260505170558 76 238 6.0 14.0 0.00 0.00 0.00 34 1010.1
20260505165538 77 247 8.0 16.0 0.00 0.00 0.00 33 1010.0
20260505164537 78 247 6.0 15.0 0.00 0.00 0.00 31 1010.0
20260505163538 78 226 5.0 12.0 0.00 0.00 0.00 29 1009.9
20260505162537 79 247 6.0 15.0 0.00 0.00 0.00 28 1009.9
20260505161537 80 249 7.0 14.0 0.00 0.00 0.00 28 1009.9
20260505160535 80 216 7.0 14.0 0.00 0.00 0.00 27 1010.0
20260505152534 80 178 3.0 8.0 0.00 0.00 0.00 27 1010.3
20260505151533 80 218 4.0 10.0 0.00 0.00 0.00 27 1010.4
20260505150553 79 209 6.0 14.0 0.00 0.00 0.00 27 1010.6
20260505140530 79 220 9.0 18.0 0.00 0.00 0.00 23 1011.2
20260505124526 80 219 9.0 19.0 0.00 0.00 0.00 25 1011.6
20260505123527 80 218 9.0 15.0 0.00 0.00 0.00 26 1011.8
20260505122545 81 245 6.0 16.0 0.00 0.00 0.00 25 1011.8
20260505121524 81 214 13.0 25.0 0.00 0.00 0.00 25 1011.9
20260505120524 81 193 8.0 18.0 0.00 0.00 0.00 25 1011.9
20260505115544 80 227 6.0 23.0 0.00 0.00 0.00 26 1012.0
20260505114523 80 175 3.0 10.0 0.00 0.00 0.00 27 1012.0
20260505113523 80 192 8.0 21.0 0.00 0.00 0.00 27 1012.2
20260505112522 80 189 9.0 21.0 0.00 0.00 0.00 27 1012.3
20260505111612 81 206 8.0 19.0 0.00 0.00 0.00 27 1012.4
20260505110520 81 198 5.0 14.0 0.00 0.00 0.00 27 1012.5
20260505101547 79 216 6.0 12.0 0.00 0.00 0.00 28 1013.0
20260505100607 79 186 4.0 14.0 0.00 0.00 0.00 29 1013.1
20260505095548 79 205 3.0 14.0 0.00 0.00 0.00 30 1013.2
20260505094515 78 212 3.0 11.0 0.00 0.00 0.00 29 1013.2
20260505093546 78 148 3.0 15.0 0.00 0.00 0.00 29 1013.4
20260505092545 77 213 6.0 16.0 0.00 0.00 0.00 30 1013.4
20260505091544 76 211 8.0 19.0 0.00 0.00 0.00 30 1013.5
20260505090544 77 202 4.0 11.0 0.00 0.00 0.00 31 1013.5
20260505085543 75 214 5.0 14.0 0.00 0.00 0.00 34 1013.6
20260505084543 75 202 2.0 7.0 0.00 0.00 0.00 36 1013.6
20260505083543 74 200 2.0 5.0 0.00 0.00 0.00 38 1013.8
20260505082542 72 210 4.0 10.0 0.00 0.00 0.00 39 1013.9
20260505081601 72 219 6.0 11.0 0.00 0.00 0.00 39 1013.9
20260505080541 71 182 4.0 10.0 0.00 0.00 0.00 40 1014.1
20260505075541 70 195 3.0 8.0 0.00 0.00 0.00 42 1014.1
20260505074540 69 210 6.0 11.0 0.00 0.00 0.00 43 1014.1
20260505073540 68 231 4.0 8.0 0.00 0.00 0.00 44 1014.2
20260505072540 67 211 5.0 8.0 0.00 0.00 0.00 44 1014.3
20260505071539 68 194 4.0 8.0 0.00 0.00 0.00 43 1014.3
20260505070538 67 199 4.0 7.0 0.00 0.00 0.00 44 1014.3
20260505065538 66 204 2.0 7.0 0.00 0.00 0.00 44 1014.4
20260505064537 66 185 2.0 5.0 0.00 0.00 0.00 44 1014.4
20260505063538 65 233 1.0 4.0 0.00 0.00 0.00 44 1014.4
20260505062537 64 201 1.0 5.0 0.00 0.00 0.00 44 1014.5
20260505061537 63 214 1.0 3.0 0.00 0.00 0.00 45 1014.5
20260505060536 62 230 1.0 5.0 0.00 0.00 0.00 46 1014.4
20260505055535 62 186 1.0 3.0 0.00 0.00 0.00 46 1014.5
20260505054534 61 230 0.0 3.0 0.00 0.00 0.00 47 1014.5
20260505053534 60 225 0.0 3.0 0.00 0.00 0.00 48 1014.5
20260505052534 60 229 2.0 4.0 0.00 0.00 0.00 48 1014.5
20260505051553 60 214 1.0 3.0 0.00 0.00 0.00 50 1014.5
20260505050533 59 224 1.0 3.0 0.00 0.00 0.00 51 1014.5
20260505041601 56 0.0 0.0 0.00 0.00 0.00 55 1014.4
20260505040600 55 0.0 0.0 0.00 0.00 0.00 56 1014.4
20260505035600 53 0.0 0.0 0.00 0.00 0.00 58 1014.4
20260505034600 53 0.0 0.0 0.00 0.00 0.00 58 1014.4
20260505033529 53 0.0 0.0 0.00 0.00 0.00 59 1014.4
20260505032548 53 248 0.0 1.0 0.00 0.00 0.00 59 1014.4
20260505031528 53 0.0 0.0 0.00 0.00 0.00 58 1014.4
20260505030528 53 0.0 0.0 0.00 0.00 0.00 56 1014.5
20260505025528 54 0.0 0.0 0.00 0.00 0.00 57 1014.5
20260505024557 54 0.0 0.0 0.00 0.00 0.00 56 1014.5